EN

Hourly Weather Naours

Today, 16 January, Saturday

Time Temperature Precipitation Wind Pressure Humidity
00:00 -1°C° 0 mm 1 mps 760 mmHg 77%
01:00 -1°C° 0 mm 1 mps 760 mmHg 78%
02:00 -3°C° 0 mm 2 mps 760 mmHg 79%
03:00 -3°C° 0 mm 2 mps 759 mmHg 80%
04:00 -3°C° 0 mm 2 mps 759 mmHg 80%
05:00 -2°C° 0 mm 3 mps 759 mmHg 79%
06:00 -2°C° 0 mm 3 mps 759 mmHg 79%
07:00 -3°C° 0 mm 4 mps 758 mmHg 80%
08:00 -4°C° 0 mm 5 mps 757 mmHg 80%
09:00 -4°C° 0 mm 6 mps 756 mmHg 81%
10:00 -3°C° 0.6 mm 6 mps 755 mmHg 85%
11:00 -3°C° 0.6 mm 6 mps 755 mmHg 90%
12:00 -3°C° 0.6 mm 7 mps 754 mmHg 95%
13:00 -3°C° 1.5 mm 6 mps 753 mmHg 95%
14:00 -3°C° 1.5 mm 6 mps 752 mmHg 96%
15:00 -2°C° 1.5 mm 6 mps 751 mmHg 96%
16:00 -1°C° 0.1 mm 6 mps 751 mmHg 97%
17:00 0°C° 0.1 mm 5 mps 751 mmHg 97%
18:00 +1°C° 0.1 mm 5 mps 750 mmHg 97%
19:00 +1°C° 0 mm 5 mps 750 mmHg 97%
20:00 +3°C° 0 mm 4 mps 751 mmHg 96%
21:00 +3°C° 0 mm 4 mps 751 mmHg 96%
22:00 +3°C° 0 mm 4 mps 751 mmHg 96%
23:00 +3°C° 0 mm 4 mps 751 mmHg 96%

Tomorrow, 17 January, Sunday

Time Temperature Precipitation Wind Pressure Humidity
00:00 +3°C° 0 mm 4 mps 751 mmHg 95%
01:00 +1°C° 0 mm 4 mps 752 mmHg 95%
02:00 +2°C° 0 mm 3 mps 752 mmHg 95%
03:00 +1°C° 0 mm 3 mps 752 mmHg 94%
04:00 +1°C° 0 mm 3 mps 752 mmHg 94%
05:00 +1°C° 0 mm 3 mps 752 mmHg 93%
06:00 +1°C° 0 mm 3 mps 753 mmHg 93%
07:00 +1°C° 0 mm 3 mps 753 mmHg 92%
08:00 +1°C° 0 mm 3 mps 753 mmHg 92%
09:00 0°C° 0 mm 4 mps 754 mmHg 91%
10:00 +1°C° 0 mm 4 mps 754 mmHg 89%
11:00 +2°C° 0 mm 5 mps 755 mmHg 87%
12:00 +3°C° 0 mm 5 mps 755 mmHg 85%
13:00 +2°C° 0 mm 5 mps 755 mmHg 86%
14:00 +3°C° 0 mm 4 mps 756 mmHg 87%
15:00 +3°C° 0 mm 3 mps 756 mmHg 88%
16:00 +3°C° 0 mm 3 mps 756 mmHg 89%
17:00 +2°C° 0 mm 3 mps 757 mmHg 91%
18:00 +3°C° 0 mm 2 mps 757 mmHg 92%
19:00 +3°C° 0 mm 2 mps 757 mmHg 92%
20:00 +2°C° 0 mm 2 mps 757 mmHg 92%
21:00 +2°C° 0 mm 2 mps 757 mmHg 92%
22:00 +2°C° 0 mm 2 mps 758 mmHg 92%
23:00 +2°C° 0 mm 2 mps 758 mmHg 93%

Day after tomorrow, 18 January, Monday

Time Temperature Precipitation Wind Pressure Humidity
00:00 +1°C° 0 mm 2 mps 758 mmHg 93%
01:00 +1°C° 0 mm 2 mps 758 mmHg 93%
02:00 0°C° 0 mm 3 mps 757 mmHg 93%
03:00 0°C° 0 mm 3 mps 757 mmHg 93%
04:00 0°C° 0 mm 3 mps 757 mmHg 94%
05:00 0°C° 0 mm 3 mps 757 mmHg 94%
06:00 0°C° 0 mm 3 mps 757 mmHg 94%
07:00 0°C° 0 mm 3 mps 757 mmHg 93%
08:00 -1°C° 0 mm 4 mps 757 mmHg 93%
09:00 0°C° 0 mm 4 mps 757 mmHg 93%
10:00 +1°C° 0 mm 4 mps 757 mmHg 91%
11:00 +3°C° 0 mm 4 mps 757 mmHg 89%
12:00 +2°C° 0 mm 5 mps 757 mmHg 87%
13:00 +3°C° 0 mm 4 mps 756 mmHg 87%
14:00 +3°C° 0 mm 4 mps 756 mmHg 88%
15:00 +3°C° 0 mm 4 mps 755 mmHg 88%
16:00 +3°C° 0 mm 4 mps 755 mmHg 90%
17:00 +1°C° 0 mm 4 mps 755 mmHg 91%
18:00 0°C° 0 mm 4 mps 755 mmHg 93%
19:00 0°C° 0 mm 4 mps 754 mmHg 92%
20:00 0°C° 0 mm 5 mps 754 mmHg 92%
21:00 0°C° 0 mm 5 mps 753 mmHg 92%
22:00 -1°C° 0 mm 6 mps 752 mmHg 92%
23:00 -1°C° 0 mm 7 mps 752 mmHg 91%

19 January, Tuesday

Time Temperature Precipitation Wind Pressure Humidity
00:00 0°C° 0 mm 7 mps 751 mmHg 91%
01:00 0°C° 0.2 mm 7 mps 750 mmHg 91%
02:00 +1°C° 0.2 mm 8 mps 749 mmHg 91%
03:00 +1°C° 0.2 mm 8 mps 748 mmHg 91%
04:00 +2°C° 0.4 mm 8 mps 748 mmHg 91%
05:00 +4°C° 0.4 mm 8 mps 748 mmHg 91%
06:00 +4°C° 0.4 mm 8 mps 747 mmHg 91%
07:00 +5°C° 0 mm 8 mps 747 mmHg 91%
08:00 +5°C° 0 mm 8 mps 747 mmHg 90%
09:00 +5°C° 0 mm 8 mps 747 mmHg 89%
10:00 +5°C° 0 mm 8 mps 747 mmHg 88%
11:00 +6°C° 0 mm 8 mps 746 mmHg 86%
12:00 +6°C° 0 mm 8 mps 746 mmHg 84%
13:00 +6°C° 0 mm 8 mps 745 mmHg 84%
14:00 +6°C° 0 mm 8 mps 744 mmHg 84%
15:00 +6°C° 0 mm 8 mps 744 mmHg 84%
16:00 +5°C° 0 mm 8 mps 743 mmHg 84%
17:00 +5°C° 0 mm 8 mps 743 mmHg 84%
18:00 +5°C° 0 mm 8 mps 742 mmHg 84%
19:00 +5°C° 0.1 mm 9 mps 742 mmHg 84%
20:00 +5°C° 0.1 mm 9 mps 741 mmHg 84%
21:00 +5°C° 0.1 mm 10 mps 740 mmHg 83%
22:00 +5°C° 0 mm 10 mps 740 mmHg 82%
23:00 +5°C° 0 mm 10 mps 739 mmHg 81%

20 January, Wednesday

Time Temperature Precipitation Wind Pressure Humidity
00:00 +5°C° 0 mm 10 mps 739 mmHg 80%
01:00 +6°C° 0 mm 10 mps 738 mmHg 81%
02:00 +6°C° 0 mm 10 mps 738 mmHg 82%
03:00 +6°C° 0 mm 10 mps 737 mmHg 84%
04:00 +6°C° 0.1 mm 10 mps 737 mmHg 82%
05:00 +6°C° 0.1 mm 10 mps 736 mmHg 80%
06:00 +6°C° 0.1 mm 11 mps 736 mmHg 78%
07:00 +6°C° 0.1 mm 11 mps 735 mmHg 79%
08:00 +6°C° 0.1 mm 11 mps 735 mmHg 80%
09:00 +5°C° 0.1 mm 10 mps 735 mmHg 81%
10:00 +4°C° 0.1 mm 11 mps 734 mmHg 79%
11:00 +6°C° 0.1 mm 11 mps 734 mmHg 78%
12:00 +6°C° 0.1 mm 11 mps 733 mmHg 76%
13:00 +6°C° 0 mm 11 mps 732 mmHg 77%
14:00 +6°C° 0 mm 11 mps 732 mmHg 79%
15:00 +6°C° 0 mm 11 mps 731 mmHg 80%
16:00 +6°C° 0.4 mm 11 mps 731 mmHg 82%
17:00 +6°C° 0.4 mm 11 mps 730 mmHg 84%
18:00 +4°C° 0.4 mm 11 mps 730 mmHg 85%
19:00 +5°C° 1.1 mm 10 mps 730 mmHg 87%
20:00 +5°C° 1.1 mm 9 mps 730 mmHg 89%
21:00 +4°C° 1.1 mm 8 mps 731 mmHg 91%
22:00 +3°C° 1.9 mm 7 mps 731 mmHg 91%
23:00 +2°C° 1.9 mm 6 mps 731 mmHg 91%

21 January, Thursday

Time Temperature Precipitation Wind Pressure Humidity
00:00 +1°C° 1.9 mm 6 mps 732 mmHg 91%
01:00 +1°C° 0.2 mm 6 mps 732 mmHg 91%
02:00 +1°C° 0.2 mm 6 mps 733 mmHg 90%
03:00 +1°C° 0.2 mm 6 mps 734 mmHg 89%
04:00 +1°C° 0 mm 6 mps 734 mmHg 89%
05:00 0°C° 0 mm 7 mps 735 mmHg 88%
06:00 0°C° 0 mm 7 mps 735 mmHg 87%
07:00 +1°C° 0.1 mm 8 mps 736 mmHg 86%
08:00 +1°C° 0.1 mm 8 mps 736 mmHg 85%
09:00 +2°C° 0.1 mm 8 mps 737 mmHg 84%
10:00 +4°C° 0.1 mm 8 mps 737 mmHg 80%
11:00 +4°C° 0.1 mm 8 mps 738 mmHg 77%
12:00 +5°C° 0.1 mm 8 mps 738 mmHg 74%
13:00 +5°C° 0.2 mm 7 mps 738 mmHg 76%
14:00 +5°C° 0.2 mm 7 mps 738 mmHg 77%
15:00 +4°C° 0.2 mm 6 mps 738 mmHg 78%
16:00 +4°C° 0.1 mm 6 mps 738 mmHg 81%
17:00 +3°C° 0.1 mm 5 mps 738 mmHg 84%
18:00 +4°C° 0.1 mm 4 mps 738 mmHg 86%
19:00 +4°C° 0.1 mm 4 mps 738 mmHg 88%
20:00 +3°C° 0.1 mm 4 mps 738 mmHg 89%
21:00 +3°C° 0.1 mm 3 mps 738 mmHg 91%
22:00 +3°C° 0 mm 3 mps 738 mmHg 92%
23:00 +2°C° 0 mm 3 mps 738 mmHg 94%
Show more

We Need Your Consent

Meteoprog and our Service Providers may store and access personal data such as cookies, device identifiers or other similar technologies on your device and process such data to personalise content and ads, as well as provide social media features and to analyse the traffic.

  • Store and/or access information on your device

    Cookies, device identifiers or other information can be stored or accessed on your device for the purposes indicated above.

  • Personalised ads and content, ad and content measurement, audience insights, and products development

    Ads and content can be personalised based on a profile. More data can be added to better personalise ads and content. Ad and content performance can be measured. Insights about the audience who saw the ads and content can be derived. Such data can be used to develop or improve user’s experience, systems and software.

By clicking ‘I Agree’ you will allow the use of indicated cookies, device identifiers, web beacons or other similar technologies. Your settings can be changed in the browser on your device.

For certain purposes, legitimate interests may be relied on, rather than consent. You can read more about this in our Privacy and Cookie Policy.